| time (UTC) | temp F | wind direction | speed MPH | gust MPH | rain 1hr in | rain 24hr in | rain mn in | humidity % | barometer mb |
| 20260504050529 | 32 | 0 | 0.0 | 0.0 | 0.00 | 0.00 | 0.00 | 85 | 1007.9 |
| 20260504045525 | 33 | 0 | 0.0 | 0.0 | 0.00 | 0.00 | 0.00 | 85 | 1007.8 |
| 20260504045026 | 33 | 0 | 0.0 | 0.0 | 0.00 | 0.00 | 0.00 | 86 | 1007.8 |
| 20260504044536 | 33 | 0 | 0.0 | 0.0 | 0.00 | 0.00 | 0.00 | 85 | 1007.8 |
| 20260504044026 | 33 | 0 | 0.0 | 0.0 | 0.00 | 0.00 | 0.00 | 85 | 1007.9 |
| 20260504043526 | 33 | 0 | 0.0 | 0.0 | 0.00 | 0.00 | 0.00 | 85 | 1007.8 |
| 20260504043042 | 33 | 0 | 0.0 | 0.0 | 0.00 | 0.00 | 0.00 | 85 | 1007.9 |
| 20260504042526 | 33 | 0 | 0.0 | 0.0 | 0.00 | 0.00 | 0.00 | 84 | 1007.9 |
| 20260504042025 | 34 | 0 | 0.0 | 0.0 | 0.00 | 0.00 | 0.00 | 83 | 1007.9 |
| 20260504041541 | 34 | 0 | 0.0 | 0.0 | 0.00 | 0.00 | 0.00 | 84 | 1008.0 |
| 20260504041025 | 34 | 0 | 0.0 | 0.0 | 0.00 | 0.00 | 0.00 | 83 | 1007.8 |
| 20260504040525 | 35 | 0 | 0.0 | 0.0 | 0.00 | 0.00 | 0.00 | 82 | 1007.8 |
| 20260504040045 | 35 | 0 | 0.0 | 0.0 | 0.00 | 0.00 | 0.00 | 81 | 1007.8 |
| 20260504035529 | 35 | 0 | 0.0 | 0.0 | 0.00 | 0.01 | 0.00 | 81 | 1007.7 |
| 20260504035026 | 36 | 0 | 0.0 | 0.0 | 0.00 | 0.01 | 0.00 | 80 | 1007.7 |
| 20260504034541 | 36 | 0 | 0.0 | 0.0 | 0.00 | 0.01 | 0.00 | 79 | 1007.7 |
| 20260504034025 | 36 | 0 | 0.0 | 0.0 | 0.00 | 0.01 | 0.00 | 80 | 1007.7 |
| 20260504033526 | 37 | 0 | 0.0 | 0.0 | 0.00 | 0.01 | 0.00 | 79 | 1007.7 |
| 20260504033047 | 37 | 0 | 0.0 | 0.0 | 0.00 | 0.01 | 0.00 | 79 | 1007.6 |
| 20260504032525 | 37 | 0 | 0.0 | 0.0 | 0.00 | 0.01 | 0.00 | 78 | 1007.6 |
| 20260504032029 | 38 | 0 | 0.0 | 0.0 | 0.00 | 0.01 | 0.00 | 78 | 1007.6 |
| 20260504031535 | 38 | 0 | 0.0 | 0.0 | 0.00 | 0.01 | 0.00 | 79 | 1007.5 |
| 20260504031024 | 38 | 0 | 0.0 | 0.0 | 0.00 | 0.01 | 0.00 | 79 | 1007.5 |
| 20260504030525 | 39 | 0 | 0.0 | 0.0 | 0.00 | 0.01 | 0.00 | 78 | 1007.5 |
| 20260504030043 | 39 | 0 | 0.0 | 0.0 | 0.00 | 0.01 | 0.00 | 79 | 1007.5 |
| 20260504025526 | 39 | 0 | 0.0 | 0.0 | 0.00 | 0.01 | 0.00 | 79 | 1007.5 |
| 20260504025026 | 40 | 0 | 0.0 | 0.0 | 0.00 | 0.01 | 0.00 | 79 | 1007.5 |
| 20260504024545 | 40 | 0 | 0.0 | 0.0 | 0.00 | 0.01 | 0.00 | 78 | 1007.6 |
| 20260504024027 | 40 | 0 | 0.0 | 0.0 | 0.00 | 0.01 | 0.00 | 76 | 1007.6 |
| 20260504023525 | 41 | 0 | 0.0 | 0.0 | 0.00 | 0.01 | 0.00 | 74 | 1007.6 |
| 20260504023039 | 41 | 0 | 0.0 | 0.0 | 0.00 | 0.01 | 0.00 | 72 | 1007.6 |
| 20260504022525 | 41 | 0 | 0.0 | 0.0 | 0.00 | 0.01 | 0.00 | 70 | 1007.6 |
| 20260504022026 | 41 | 0 | 0.0 | 0.0 | 0.00 | 0.01 | 0.00 | 68 | 1007.5 |
| 20260504021548 | 41 | 0 | 0.0 | 0.0 | 0.00 | 0.01 | 0.00 | 67 | 1007.5 |
| 20260504021022 | 42 | 0 | 0.0 | 0.0 | 0.00 | 0.01 | 0.00 | 67 | 1007.5 |
| 20260504020525 | 42 | 0 | 0.0 | 3.0 | 0.00 | 0.01 | 0.00 | 66 | 1007.4 |
| 20260504020036 | 42 | 0 | 0.0 | 3.0 | 0.00 | 0.01 | 0.00 | 66 | 1007.5 |
| 20260504015525 | 42 | 0 | 0.0 | 3.0 | 0.00 | 0.05 | 0.00 | 66 | 1007.4 |
| 20260504015025 | 42 | 0 | 0.0 | 3.0 | 0.00 | 0.05 | 0.00 | 63 | 1007.4 |
| 20260504014536 | 42 | 0 | 0.0 | 3.0 | 0.00 | 0.05 | 0.00 | 66 | 1007.4 |
| 20260504014026 | 42 | 0 | 0.0 | 3.0 | 0.00 | 0.05 | 0.00 | 63 | 1007.4 |
| 20260504013525 | 43 | 0 | 0.0 | 4.0 | 0.00 | 0.05 | 0.00 | 64 | 1007.4 |
| 20260504013048 | 43 | 0 | 0.0 | 4.0 | 0.00 | 0.05 | 0.00 | 62 | 1007.3 |
| 20260504012526 | 43 | 0 | 0.0 | 4.0 | 0.00 | 0.05 | 0.00 | 62 | 1007.3 |
| 20260504012026 | 43 | 0 | 0.0 | 4.0 | 0.00 | 0.05 | 0.00 | 62 | 1007.2 |
| 20260504011541 | 43 | 0 | 0.0 | 4.0 | 0.00 | 0.05 | 0.00 | 60 | 1007.2 |
| 20260504011025 | 44 | 0 | 0.0 | 6.0 | 0.00 | 0.05 | 0.00 | 60 | 1007.1 |
| 20260504010527 | 44 | 0 | 0.0 | 6.0 | 0.00 | 0.05 | 0.00 | 60 | 1007.0 |
| 20260504010040 | 44 | 293 | 1.0 | 6.0 | 0.00 | 0.05 | 0.00 | 60 | 1007.0 |
| 20260504005525 | 44 | 0 | 0.0 | 7.0 | 0.00 | 0.07 | 0.00 | 59 | 1006.9 |
| 20260504005025 | 44 | 307 | 1.0 | 7.0 | 0.00 | 0.07 | 0.00 | 61 | 1006.9 |
| 20260504004546 | 44 | 260 | 0.0 | 7.0 | 0.00 | 0.07 | 0.00 | 59 | 1006.8 |
| 20260504004028 | 45 | 0 | 0.0 | 7.0 | 0.00 | 0.07 | 0.00 | 57 | 1006.6 |
| 20260504003525 | 45 | 290 | 1.0 | 6.0 | 0.00 | 0.07 | 0.00 | 56 | 1006.5 |
| 20260504003036 | 45 | 0 | 0.0 | 6.0 | 0.00 | 0.07 | 0.00 | 55 | 1006.4 |
| 20260504002525 | 45 | 245 | 0.0 | 4.0 | 0.00 | 0.07 | 0.00 | 55 | 1006.3 |
| 20260504002026 | 45 | 0 | 0.0 | 7.0 | 0.00 | 0.07 | 0.00 | 55 | 1006.2 |
| 20260504001537 | 46 | 0 | 1.0 | 9.0 | 0.00 | 0.07 | 0.00 | 54 | 1006.1 |
| 20260504001026 | 46 | 0 | 4.0 | 10.0 | 0.00 | 0.07 | 0.00 | 52 | 1005.9 |
| 20260504000524 | 46 | 318 | 2.0 | 10.0 | 0.00 | 0.07 | 0.00 | 54 | 1005.8 |
| 20260504000035 | 46 | 293 | 3.0 | 9.0 | 0.00 | 0.07 | 0.00 | 52 | 1005.7 |
| 20260503235525 | 47 | 311 | 3.0 | 9.0 | 0.00 | 0.08 | 0.00 | 50 | 1005.6 |
| 20260503235025 | 46 | 299 | 3.0 | 9.0 | 0.00 | 0.08 | 0.00 | 51 | 1005.6 |
| 20260503234541 | 47 | 273 | 0.0 | 8.0 | 0.00 | 0.08 | 0.00 | 53 | 1005.5 |
| 20260503234026 | 47 | 0 | 1.0 | 8.0 | 0.00 | 0.08 | 0.00 | 50 | 1005.4 |
| 20260503233526 | 47 | 303 | 2.0 | 8.0 | 0.00 | 0.08 | 0.00 | 51 | 1005.4 |
| 20260503233039 | 48 | 0 | 1.0 | 13.0 | 0.00 | 0.08 | 0.00 | 52 | 1005.3 |
| 20260503232525 | 48 | 0 | 4.0 | 13.0 | 0.00 | 0.08 | 0.00 | 46 | 1005.3 |
| 20260503232025 | 48 | 330 | 4.0 | 13.0 | 0.00 | 0.08 | 0.00 | 49 | 1005.1 |
| 20260503231540 | 48 | 216 | 2.0 | 11.0 | 0.00 | 0.08 | 0.00 | 47 | 1005.0 |
| 20260503231025 | 49 | 299 | 3.0 | 11.0 | 0.00 | 0.08 | 0.00 | 47 | 1004.9 |
| 20260503230525 | 49 | 299 | 4.0 | 11.0 | 0.00 | 0.08 | 0.00 | 48 | 1004.8 |
| 20260503230036 | 50 | 0 | 2.0 | 7.0 | 0.00 | 0.08 | 0.00 | 51 | 1004.7 |
| 20260503225524 | 50 | 0 | 0.0 | 13.0 | 0.00 | 0.11 | 0.00 | 48 | 1004.7 |
| 20260503225025 | 51 | 309 | 2.0 | 13.0 | 0.00 | 0.11 | 0.00 | 45 | 1004.5 |
| 20260503224544 | 51 | 263 | 0.0 | 13.0 | 0.00 | 0.11 | 0.00 | 50 | 1004.5 |
| 20260503224026 | 51 | 288 | 0.0 | 13.0 | 0.00 | 0.11 | 0.00 | 47 | 1004.4 |
| 20260503223524 | 51 | 305 | 2.0 | 10.0 | 0.00 | 0.11 | 0.00 | 45 | 1004.2 |
| 20260503223040 | 51 | 0 | 3.0 | 10.0 | 0.00 | 0.11 | 0.00 | 43 | 1004.2 |
| 20260503222526 | 52 | 312 | 2.0 | 11.0 | 0.00 | 0.11 | 0.00 | 44 | 1004.1 |
| 20260503222025 | 52 | 0 | 3.0 | 15.0 | 0.00 | 0.11 | 0.00 | 42 | 1004.0 |
| 20260503221539 | 52 | 284 | 5.0 | 15.0 | 0.00 | 0.11 | 0.00 | 44 | 1003.9 |
| 20260503221029 | 52 | 267 | 5.0 | 14.0 | 0.00 | 0.11 | 0.00 | 42 | 1003.7 |
| 20260503220525 | 52 | 297 | 4.0 | 14.0 | 0.00 | 0.11 | 0.00 | 43 | 1003.7 |
| 20260503220041 | 51 | 282 | 4.0 | 13.0 | 0.00 | 0.11 | 0.00 | 46 | 1003.7 |
| 20260503215524 | 50 | 318 | 6.0 | 13.0 | 0.00 | 0.12 | 0.00 | 45 | 1003.6 |
| 20260503215025 | 51 | 265 | 4.0 | 12.0 | 0.00 | 0.12 | 0.00 | 46 | 1003.6 |
| 20260503214536 | 51 | 286 | 2.0 | 10.0 | 0.00 | 0.12 | 0.00 | 49 | 1003.5 |
| 20260503214026 | 51 | 302 | 1.0 | 13.0 | 0.00 | 0.12 | 0.00 | 50 | 1003.5 |
| 20260503213526 | 52 | 294 | 5.0 | 13.0 | 0.00 | 0.12 | 0.00 | 46 | 1003.6 |
| 20260503213035 | 52 | 285 | 2.0 | 12.0 | 0.00 | 0.12 | 0.00 | 48 | 1003.5 |
| 20260503212525 | 52 | 274 | 3.0 | 9.0 | 0.00 | 0.12 | 0.00 | 46 | 1003.4 |
| 20260503212025 | 51 | 301 | 1.0 | 9.0 | 0.00 | 0.12 | 0.00 | 53 | 1003.4 |
| 20260503211542 | 51 | 0 | 2.0 | 12.0 | 0.00 | 0.12 | 0.00 | 46 | 1003.4 |
| 20260503211024 | 51 | 282 | 4.0 | 12.0 | 0.00 | 0.12 | 0.00 | 50 | 1003.3 |
| 20260503210524 | 52 | 303 | 3.0 | 10.0 | 0.00 | 0.12 | 0.00 | 49 | 1003.3 |
| 20260503210040 | 52 | 0 | 1.0 | 7.0 | 0.00 | 0.12 | 0.00 | 48 | 1003.4 |
| 20260503205531 | 52 | 282 | 0.0 | 4.0 | 0.00 | 0.12 | 0.00 | 51 | 1003.3 |
| 20260503205025 | 52 | 0 | 0.0 | 7.0 | 0.00 | 0.12 | 0.00 | 52 | 1003.3 |
| 20260503204539 | 51 | 0 | 2.0 | 7.0 | 0.00 | 0.12 | 0.00 | 51 | 1003.4 |
| 20260503204025 | 51 | 0 | 1.0 | 7.0 | 0.00 | 0.12 | 0.00 | 52 | 1003.4 |
| 20260503203527 | 51 | 303 | 1.0 | 7.0 | 0.00 | 0.12 | 0.00 | 53 | 1003.4 |
| 20260503203040 | 51 | 332 | 1.0 | 8.0 | 0.00 | 0.12 | 0.00 | 51 | 1003.4 |
| 20260503202525 | 51 | 301 | 4.0 | 9.0 | 0.00 | 0.12 | 0.00 | 57 | 1003.5 |
| 20260503202022 | 50 | 303 | 3.0 | 9.0 | 0.00 | 0.12 | 0.00 | 54 | 1003.5 |
| 20260503201538 | 50 | 268 | 2.0 | 9.0 | 0.00 | 0.12 | 0.00 | 56 | 1003.6 |
| 20260503201026 | 50 | 0 | 2.0 | 5.0 | 0.00 | 0.12 | 0.00 | 55 | 1003.5 |
| 20260503200525 | 50 | 0 | 0.0 | 10.0 | 0.00 | 0.12 | 0.00 | 56 | 1003.6 |
| 20260503200035 | 50 | 338 | 1.0 | 10.0 | 0.00 | 0.12 | 0.00 | 57 | 1003.7 |
| 20260503195524 | 50 | 301 | 3.0 | 10.0 | 0.00 | 0.12 | 0.00 | 55 | 1003.6 |
| 20260503195027 | 50 | 0 | 2.0 | 9.0 | 0.00 | 0.12 | 0.00 | 57 | 1003.7 |
| 20260503194543 | 50 | 311 | 2.0 | 12.0 | 0.00 | 0.12 | 0.00 | 54 | 1003.7 |
| 20260503194028 | 50 | 299 | 2.0 | 12.0 | 0.00 | 0.12 | 0.00 | 60 | 1003.8 |
| 20260503193529 | 50 | 0 | 2.0 | 11.0 | 0.00 | 0.12 | 0.00 | 57 | 1003.9 |
| 20260503193041 | 49 | 338 | 1.0 | 11.0 | 0.00 | 0.12 | 0.00 | 64 | 1003.9 |
| 20260503192525 | 49 | 0 | 1.0 | 6.0 | 0.00 | 0.12 | 0.00 | 62 | 1003.9 |
| 20260503192025 | 49 | 0 | 0.0 | 5.0 | 0.00 | 0.12 | 0.00 | 64 | 1004.0 |
| 20260503191540 | 49 | 0 | 1.0 | 5.0 | 0.00 | 0.12 | 0.00 | 63 | 1004.0 |
| 20260503191025 | 49 | 0 | 0.0 | 5.0 | 0.00 | 0.12 | 0.00 | 63 | 1004.0 |
| 20260503190526 | 49 | 0 | 0.0 | 5.0 | 0.00 | 0.12 | 0.00 | 65 | 1004.0 |
| 20260503190044 | 49 | 0 | 0.0 | 7.0 | 0.00 | 0.12 | 0.00 | 63 | 1004.0 |
| 20260503185522 | 49 | 306 | 1.0 | 7.0 | 0.00 | 0.12 | 0.00 | 64 | 1004.0 |
| 20260503185026 | 49 | 0 | 0.0 | 8.0 | 0.00 | 0.12 | 0.00 | 63 | 1003.9 |
| 20260503184540 | 49 | 0 | 0.0 | 8.0 | 0.00 | 0.12 | 0.00 | 63 | 1004.0 |
| 20260503184025 | 49 | 0 | 1.0 | 8.0 | 0.00 | 0.12 | 0.00 | 65 | 1004.1 |
| 20260503183525 | 49 | 0 | 0.0 | 9.0 | 0.00 | 0.12 | 0.00 | 63 | 1004.0 |
| 20260503183042 | 49 | 0 | 0.0 | 11.0 | 0.00 | 0.12 | 0.00 | 64 | 1004.0 |
| 20260503182532 | 49 | 0 | 4.0 | 11.0 | 0.00 | 0.12 | 0.00 | 63 | 1004.1 |
| 20260503182028 | 49 | 0 | 0.0 | 8.0 | 0.00 | 0.12 | 0.00 | 65 | 1004.1 |
| 20260503181541 | 49 | 332 | 1.0 | 9.0 | 0.00 | 0.12 | 0.00 | 64 | 1004.1 |
| 20260503181025 | 49 | 286 | 0.0 | 9.0 | 0.00 | 0.12 | 0.00 | 65 | 1004.3 |
| 20260503180526 | 49 | 0 | 1.0 | 9.0 | 0.00 | 0.12 | 0.00 | 69 | 1004.2 |
| 20260503180040 | 49 | 351 | 2.0 | 9.0 | 0.00 | 0.12 | 0.00 | 67 | 1004.2 |
| 20260503175526 | 48 | 277 | 0.0 | 8.0 | 0.00 | 0.13 | 0.00 | 70 | 1004.3 |
| 20260503175027 | 48 | 0 | 1.0 | 8.0 | 0.00 | 0.13 | 0.00 | 67 | 1004.2 |
| 20260503174558 | 48 | 0 | 2.0 | 11.0 | 0.00 | 0.13 | 0.00 | 68 | 1004.2 |
| 20260503174022 | 48 | 308 | 3.0 | 11.0 | 0.00 | 0.13 | 0.00 | 68 | 1004.3 |
| 20260503173526 | 48 | 298 | 1.0 | 10.0 | 0.00 | 0.13 | 0.00 | 68 | 1004.2 |
| 20260503173040 | 48 | 0 | 2.0 | 10.0 | 0.00 | 0.13 | 0.00 | 72 | 1004.4 |
| 20260503172523 | 48 | 307 | 4.0 | 10.0 | 0.00 | 0.13 | 0.00 | 69 | 1004.3 |
| 20260503172025 | 47 | 0 | 2.0 | 7.0 | 0.00 | 0.13 | 0.00 | 72 | 1004.3 |
| 20260503171536 | 47 | 303 | 1.0 | 6.0 | 0.00 | 0.13 | 0.00 | 72 | 1004.4 |
| 20260503171023 | 47 | 0 | 1.0 | 6.0 | 0.00 | 0.13 | 0.00 | 71 | 1004.4 |
| 20260503170523 | 47 | 0 | 0.0 | 13.0 | 0.00 | 0.13 | 0.00 | 72 | 1004.4 |
| 20260503150522 | 43 | 1 | 1.0 | 8.0 | 0.00 | 0.13 | 0.00 | 88 | 1005.1 |
| 20260503131029 | 43 | 0 | 0.0 | 7.0 | 0.00 | 0.16 | 0.00 | 92 | 1006.0 |
| 20260503130530 | 43 | 0 | 0.0 | 7.0 | 0.00 | 0.16 | 0.00 | 92 | 1006.1 |
| 20260503110530 | 42 | 14 | 0.0 | 4.0 | 0.00 | 0.18 | 0.00 | 95 | 1006.9 |
| 20260503081547 | 41 | 0 | 0.0 | 0.0 | 0.00 | 0.18 | 0.00 | 95 | 1008.0 |
| 20260503081023 | 41 | 0 | 0.0 | 0.0 | 0.00 | 0.18 | 0.00 | 95 | 1008.2 |
| 20260503080526 | 41 | 0 | 0.0 | 0.0 | 0.00 | 0.18 | 0.00 | 95 | 1008.3 |
| 20260503072526 | 42 | 0 | 0.0 | 0.0 | 0.00 | 0.18 | 0.00 | 95 | 1008.3 |
| 20260503072026 | 42 | 0 | 0.0 | 0.0 | 0.00 | 0.18 | 0.00 | 95 | 1008.3 |
| 20260503071541 | 42 | 0 | 0.0 | 0.0 | 0.00 | 0.18 | 0.00 | 95 | 1008.3 |
| 20260503071025 | 42 | 0 | 0.0 | 0.0 | 0.00 | 0.18 | 0.00 | 95 | 1008.6 |
| 20260503070525 | 42 | 0 | 0.0 | 0.0 | 0.00 | 0.18 | 0.00 | 95 | 1008.6 |